"2022-08-24 00:01:00",3082725,0.634,304.7333,1.062523,0.01540562,0.66,0,0.272,86.79868,5.646,0.02166411,0.3,0,-999,0,16.86,96.6,16.96,16.86,0.2,0,0,17.46,13.26,0.2,101.8114,3.346,3.347,3.344,100,0,0,0,204.5,29.48,29.48
"2022-08-24 00:02:00",3082726,0.646,301.2008,2.71261,0.01143096,0.67,0,0.312,104.0724,4.944068,0.01641138,0.34,0,-999,0,16.8,95.7,16.83,16.75,0.2,0,0,17.46,13.25,0.2,101.8145,3.345,3.346,3.343,100,0,0,0,204.5,29.48,29.48
"2022-08-24 00:03:00",3082727,0.6433334,294.7999,1.274956,0.014453,0.66,0,0.2053334,106.4666,3.221875,0.04991549,0.3,0,-999,0,16.79,96.3,16.83,16.75,0.2,0,0,17.44,13.25,0.2,101.8152,3.345,3.345,3.342,100,0,0,0,204.5,29.48,29.48
"2022-08-24 00:04:00",3082728,0.6726667,295.4675,3.499411,0.02235073,0.71,0,0.1886667,117.7326,3.695182,0.03757067,0.23,0,-999,0,16.75,96.6,16.85,16.8,0.2,0,0,17.43,13.26,0.2,101.815,3.345,3.346,3.343,100,0,0,0,204.5,29.48,29.48
"2022-08-24 00:05:00",3082729,0.646,286.7999,1.107705,0.006110104,0.66,0,0.1953334,120.5996,2.3323,0.02186829,0.22,0,-999,0,16.72,96.8,16.85,16.79,0.2,0,0,17.41,13.25,0.2,101.8143,3.344,3.345,3.342,100,0,0,0,204.5,29.47,29.48
"2022-08-24 00:06:00",3082730,0.6693333,287.3333,0.5969329,0.01730768,0.7,0,0.2366667,131.1334,1.257877,0.02494438,0.26,0,-999,0,16.7,96.8,16.84,16.77,0.2,0,0,17.41,13.25,0.2,101.8192,3.343,3.345,3.342,100,0,0,0,204.5,29.48,29.48
"2022-08-24 00:07:00",3082731,0.6973333,288.2001,1.107705,0.02839405,0.75,0,0.2726666,137.1337,3.593846,0.02143725,0.31,0,-999,0,16.7,96.6,16.83,16.76,0.2,0,0,17.4,13.26,0.2,101.8137,3.346,3.348,3.344,100,0,0,0,204.5,29.48,29.48
"2022-08-24 00:08:00",3082732,0.7746666,292.8001,1.423448,0.01454495,0.8,0,0.2606667,141.8668,2.028586,0.03335999,0.32,0,-999,0,16.67,96.7,16.79,16.71,0.2,0,0,17.39,13.27,0.2,101.8189,3.347,3.348,3.346,100,0,0,0,204.5,29.47,29.48
"2022-08-24 00:09:00",3082733,0.8126667,297.4001,1.781475,0.01289271,0.84,0,0.1966667,150.5333,1.857242,0.0195505,0.23,0,-999,0,16.6,96.7,16.73,16.62,0.2,0,0,17.36,13.26,0.2,101.8211,3.346,3.35,3.346,100,0,0,0,204.5,29.48,29.48
"2022-08-24 00:10:00",3082734,0.822,301.2,1.107175,0.007483308,0.84,0,0.2093334,141.8647,4.176778,0.01651935,0.23,0,-999,0,16.6,96.1,16.65,16.59,0.2,0,0,17.36,13.27,0.2,101.8179,3.346,3.347,3.346,100,0,0,0,204.5,29.48,29.48
"2022-08-24 00:11:00",3082735,0.9119999,300.8,0.6531312,0.044,0.98,0,0.1226667,130.1491,6.090526,0.03473071,0.17,0,-999,0,16.6,96.3,16.6,16.58,0.2,0,0,17.34,13.26,0.2,101.8196,3.346,3.347,3.345,100,0,0,0,204.5,29.48,29.48
"2022-08-24 00:12:00",3082736,1.016,304.3333,1.075066,0.01404752,1.04,0,0.04266667,26.19192,47.69773,0.01730767,0.08,0,-999,0,16.6,96.3,16.59,16.58,0.2,0,0,17.33,13.26,0.2,101.8189,3.345,3.346,3.345,100,0,0,0,204.5,29.48,29.48
"2022-08-24 00:13:00",3082737,1.076,305.6,0.9520664,0.02776091,1.12,0,0.16,313.1919,5.897995,0.0454606,0.25,0,-999,0,16.53,96.4,16.58,16.57,0.2,0,0,17.31,13.26,0.2,101.8202,3.346,3.346,3.345,100,0,0,0,204.5,29.48,29.48
"2022-08-24 00:14:00",3082738,1.036,305.6,0.4897937,0.0192527,1.07,0,0.3026666,307.4001,1.993234,0.0418675,0.37,0,-999,0,16.5,97.4,16.58,16.56,0.2,0,0,17.29,13.26,0.2,101.8192,3.345,3.346,3.344,100,0,0,0,204.5,29.48,29.48
"2022-08-24 00:15:00",3082739,1.081333,305.1333,1.024353,0.02963484,1.12,0,0.416,309.7333,1.289307,0.02184795,0.45,0,-999,0,16.5,98,16.6,16.6,0.2,0,0,17.27,13.25,0.2,101.8204,3.343,3.345,3.343,100,0,0,0,204.5,29.48,29.48
"2022-08-24 00:16:00",3082740,1.046667,305.1334,0.884397,0.01577621,1.07,0,0.436,314.5995,3.479226,0.01019804,0.45,0,-999,0,16.56,98.5,16.68,16.65,0.2,0,0,17.26,13.25,0.2,101.8197,3.343,3.345,3.342,100,0,0,0,204.5,29.48,29.48
"2022-08-24 00:17:00",3082741,1.001333,308.6001,1.854711,0.02940898,1.05,0,0.418,320.8666,1.024257,0.0142361,0.44,0,-999,0,16.6,98.6,16.7,16.65,0.2,0,0,17.23,13.25,0.2,101.8152,3.343,3.345,3.342,100,0,0,0,204.5,29.48,29.48
"2022-08-24 00:18:00",3082742,0.9999999,315.8667,1.309791,0.03119827,1.06,0,0.416,332.2035,4.591687,0.02026491,0.44,0,-999,0,16.6,98.5,16.73,16.62,0.2,0,0,17.21,13.25,0.2,101.8103,3.343,3.346,3.342,100,0,0,0,204.5,29.48,29.48
"2022-08-24 00:19:00",3082743,1.036,316.8667,0.8845076,0.01496662,1.06,0,0.4033333,334.9333,1.481865,0.02211083,0.43,0,-999,0,16.6,98.5,16.75,16.61,0.2,0,0,17.2,13.26,0.2,101.8156,3.345,3.345,3.342,100,0,0,0,204.5,29.47,29.48
"2022-08-24 00:20:00",3082744,1.000667,319.1333,1.35951,0.02112396,1.04,0,0.3986667,333.6001,1.781475,0.01309792,0.43,0,-999,0,16.6,98.5,16.77,16.64,0.2,0,0,17.17,13.25,0.2,101.8158,3.345,3.345,3.34,100,0,0,0,204.5,29.47,29.48
"2022-08-24 00:21:00",3082745,0.8726666,322.8,0.8322998,0.04836895,0.96,0,0.3793333,343.0002,1.632839,0.01982142,0.4,0,-999,0,16.68,98.3,16.81,16.72,0.2,0,0,17.16,13.25,0.2,101.8148,3.345,3.346,3.344,100,0,0,0,204.5,29.47,29.48
"2022-08-24 00:22:00",3082746,0.868,330.2009,3.370105,0.01107549,0.89,0,0.3913333,349.8004,2.006698,0.03116978,0.43,0,-999,0,16.72,98.3,16.89,16.78,0.2,0,0,17.14,13.26,0.2,101.8112,3.346,3.347,3.342,100,0,0,0,204.5,29.47,29.48
"2022-08-24 00:23:00",3082747,0.886,337.4,1.743369,0.01356465,0.91,0,0.434,358.2668,2.694778,0.008793935,0.45,0,-999,0,16.8,98.1,16.92,16.81,0.2,0,0,17.11,13.26,0.2,101.8129,3.345,3.346,3.343,100,0,0,0,204.5,29.48,29.48
"2022-08-24 00:24:00",3082748,0.9186667,339.8,0.9796239,0.02246973,0.95,0,0.458,6.528338,4.963509,0.01469694,0.48,0,-999,0,16.75,98,16.91,16.81,0.2,0,0,17.1,13.24,0.2,101.8141,3.344,3.344,3.34,100,0,0,0,204.5,29.48,29.48
"2022-08-24 00:25:00",3082749,0.8866667,338,1.095267,0.02913571,0.92,0,0.4159999,13.19438,7.493644,0.01704895,0.45,0,-999,0,16.69,97.5,16.82,16.77,0.2,0,0,17.07,13.26,0.2,101.8128,3.344,3.345,3.343,100,0,0,0,204.5,29.48,29.48
"2022-08-24 00:26:00",3082750,0.744,340.6667,1.490821,0.05713143,0.83,0,0.456,26.14321,6.54759,0.0698379,0.56,0,-999,0,16.61,97.7,16.78,16.73,0.2,0,0,17.06,13.25,0.2,101.8155,3.344,3.345,3.342,100,0,0,0,204.5,29.48,29.48
"2022-08-24 00:27:00",3082751,0.6813334,342.4,1.306499,0.0377477,0.74,0,0.3573333,26.53857,5.186147,0.03414999,0.41,0,-999,0,16.6,97.8,16.74,16.71,0.2,0,0,17.05,13.25,0.2,101.8153,3.346,3.346,3.34,100,0,0,0,204.5,29.48,29.48
"2022-08-24 00:28:00",3082752,0.6886667,338.8667,0.4985056,0.02704728,0.72,0,0.3266667,29.46687,3.593327,0.03438346,0.39,0,-999,0,16.6,98.2,16.73,16.66,0.2,0,0,17.03,13.25,0.2,101.8183,3.346,3.346,3.342,100,0,0,0,204.5,29.48,29.48
"2022-08-24 00:29:00",3082753,0.74,329.4644,4.937319,0.01154699,0.76,0,0.3466667,19.66632,3.069079,0.01920648,0.37,0,-999,0,16.6,98.4,16.74,16.65,0.2,0,0,17.01,13.24,0.2,101.8192,3.342,3.346,3.342,100,0,0,0,204.5,29.47,29.48
"2022-08-24 00:30:00",3082754,0.7766666,322,0.5170041,0.04496912,0.84,0,0.3006667,8.001178,3.244318,0.02264705,0.33,0,-999,0,16.6,98.4,16.75,16.65,0.2,0,0,17,13.25,0.2,101.8192,3.343,3.344,3.339,100,0,0,0,204.5,29.47,29.48
"2022-08-24 00:31:00",3082755,0.8746668,318.9333,1.289155,0.02217104,0.9,0,0.3006667,340.1367,10.56153,0.009977753,0.32,0,-999,0,16.6,98.3,16.78,16.66,0.2,0,0,16.97,13.26,0.2,101.8214,3.344,3.344,3.342,100,0,0,0,204.5,29.48,29.48
"2022-08-24 00:32:00",3082756,0.9206666,312.7999,1.796361,0.01236482,0.95,0,0.3813334,314.6675,4.97432,0.04333846,0.48,0,-999,0,16.6,98.4,16.8,16.67,0.2,0,0,16.96,13.25,0.2,101.8206,3.344,3.346,3.342,100,0,0,0,204.5,29.48,29.48
"2022-08-24 00:33:00",3082757,0.9613333,308.6,1.743594,0.0149963,0.99,0,0.4966667,305.3334,1.192374,0.01577621,0.52,0,-999,0,16.6,98.4,16.81,16.73,0.2,0,0,16.96,13.26,0.2,101.8204,3.344,3.346,3.342,100,0,0,0,204.5,29.48,29.48
"2022-08-24 00:34:00",3082758,1.035333,304.7334,1.236296,0.03095516,1.11,0,0.5026667,301.6671,2.299396,0.01842703,0.55,0,-999,0,16.6,98.5,16.79,16.72,0.2,0,0,16.94,13.25,0.2,101.822,3.344,3.346,3.34,100,0,0,0,204.5,29.47,29.48
"2022-08-24 00:35:00",3082759,0.9786667,298.2657,2.767648,0.03930507,1.06,0,0.508,291.4667,3.946858,0.01758787,0.54,0,-999,0,16.6,98.3,16.78,16.68,0.2,0,0,16.92,13.26,0.2,101.8225,3.343,3.345,3.343,100,0,0,0,204.5,29.48,29.48
"2022-08-24 00:36:00",3082760,1.012,298.3997,1.925064,0.04085747,1.07,0,0.572,280.6666,1.534563,0.01939073,0.6,0,-999,0,16.6,98.3,16.75,16.66,0.2,0,0,16.91,13.26,0.2,101.826,3.344,3.346,3.342,100,0,0,0,204.5,29.48,29.48
"2022-08-24 00:37:00",3082761,1.056,300.2,1.599955,0.02026493,1.09,0,0.558,285.1337,2.276278,0.03270066,0.61,0,-999,0,16.53,98.3,16.71,16.63,0.2,0,0,16.89,13.26,0.2,101.8241,3.345,3.346,3.342,100,0,0,0,204.5,29.48,29.48
"2022-08-24 00:38:00",3082762,1.009333,300.6,0.6107063,0.01062491,1.03,0,0.4766666,280.2678,4.999079,0.01776388,0.52,0,-999,0,16.5,98.3,16.64,16.59,0.2,0,0,16.87,13.25,0.2,101.8234,3.344,3.346,3.343,100,0,0,0,204.5,29.48,29.48
"2022-08-24 00:39:00",3082763,0.976,298.4667,0.7176573,0.0230362,1.03,0,0.4346666,271.3998,2.497751,0.02124984,0.45,0,-999,0,16.5,98.5,16.63,16.58,0.2,0,0,16.86,13.26,0.2,101.8233,3.343,3.346,3.342,100,0,0,0,204.5,29.47,29.47
"2022-08-24 00:40:00",3082764,0.8813334,300.333,2.598976,0.04302971,0.94,0,0.384,272.2003,2.103799,0.04363485,0.46,0,-999,0,16.5,98.6,16.63,16.58,0.2,0,0,16.84,13.24,0.2,101.8237,3.34,3.344,3.338,100,0,0,0,204.5,29.47,29.47
"2022-08-24 00:41:00",3082765,0.7686666,307.1333,0.956578,0.02825282,0.82,0,0.234,273.1334,4.543161,0.0344093,0.32,0,-999,0,16.5,98.6,16.62,16.58,0.2,0,0,16.83,13.25,0.2,101.8253,3.344,3.344,3.34,100,0,0,0,204.5,29.47,29.47
"2022-08-24 00:42:00",3082766,0.6613334,314.5334,3.70306,0.02848781,0.7,0,0.1326667,290.1321,5.273633,0.02174601,0.16,0,-999,0,16.5,98.5,16.61,16.58,0.2,0,0,16.81,13.26,0.2,101.8233,3.342,3.343,3.342,100,0,0,0,204.5,29.47,29.47
"2022-08-24 00:43:00",3082767,0.5946667,321.9334,1.569067,0.01499631,0.62,0,0.1046667,319.4596,22.9173,0.01667999,0.13,0,-999,0,16.5,98.3,16.58,16.52,0.2,0,0,16.8,13.26,0.2,101.8223,3.344,3.345,3.338,100,0,0,0,204.5,29.48,29.47
"2022-08-24 00:44:00",3082768,0.6113333,322.7333,0.5735269,0.0158605,0.64,0,0.1233333,330.7868,15.88278,0.02054805,0.16,0,-999,0,16.41,98,16.56,16.47,0.2,0,0,16.77,13.25,0.2,101.8214,3.344,3.344,3.342,100,0,0,0,204.5,29.47,29.47
"2022-08-24 00:45:00",3082769,0.654,322.6,0.4897937,0.01143096,0.67,0,0.18,330.8138,7.938967,0.03723798,0.25,0,-999,0,16.4,98.2,16.5,16.42,0.2,0,0,16.76,13.25,0.2,101.824,3.342,3.345,3.342,100,0,0,0,204.5,29.48,29.47
"2022-08-24 00:46:00",3082770,0.6853333,321.9333,0.2494466,0.01359737,0.71,0,0.256,316.1987,3.269189,0.02751969,0.29,0,-999,0,16.35,98,16.48,16.36,0.2,0,0,16.75,13.26,0.2,101.8253,3.344,3.345,3.342,100,0,0,0,204.5,29.47,29.47
"2022-08-24 00:47:00",3082771,0.7473333,320.2667,1.568879,0.0264491,0.78,0,0.264,315.6663,2.210974,0.02602563,0.3,0,-999,0,16.3,98,16.46,16.34,0.2,0,0,16.74,13.26,0.2,101.8223,3.342,3.345,3.342,100,0,0,0,204.5,29.47,29.47
"2022-08-24 00:48:00",3082772,0.7626667,317.8,0.6537302,0.009285583,0.78,0,0.28,311.7333,1.181242,0.008164963,0.29,0,-999,0,16.3,97.8,16.42,16.34,0.2,0,0,16.71,13.25,0.2,101.8228,3.343,3.344,3.34,100,0,0,0,204.5,29.48,29.47
"2022-08-24 00:49:00",3082773,0.7600001,312.7997,1.972991,0.01095444,0.77,0,0.2753333,308,1.897297,0.0158605,0.3,0,-999,0,16.29,97.7,16.39,16.31,0.2,0,0,16.7,13.26,0.2,101.8236,3.343,3.346,3.34,100,0,0,0,204.5,29.47,29.47
"2022-08-24 00:50:00",3082774,0.8006667,311.1333,0.4990941,0.02815828,0.87,0,0.234,312.7329,4.682317,0.02332381,0.27,0,-999,0,16.23,97.7,16.33,16.28,0.2,0,0,16.69,13.25,0.2,101.8227,3.34,3.344,3.339,100,0,0,0,204.5,29.47,29.47
"2022-08-24 00:51:00",3082775,0.9093333,311.4667,0.499486,0.02568181,0.95,0,0.2073333,321.6666,1.699466,0.01768867,0.24,0,-999,0,16.2,97.8,16.3,16.25,0.2,0,0,16.67,13.26,0.2,101.8246,3.343,3.345,3.34,100,0,0,0,204.5,29.47,29.47
"2022-08-24 00:52:00",3082776,0.9413332,312.5334,0.7179299,0.01024152,0.96,0,0.2113333,318.8666,1.927301,0.0199555,0.24,0,-999,0,16.2,97.8,16.27,16.2,0.2,0,0,16.66,13.26,0.2,101.8225,3.344,3.345,3.342,100,0,0,0,204.5,29.47,29.47
"2022-08-24 00:53:00",3082777,0.9186665,313.9333,0.6799936,0.02093376,0.96,0,0.196,309.2006,3.900926,0.01306394,0.22,0,-999,0,16.13,97.9,16.26,16.19,0.2,0,0,16.65,13.26,0.2,101.8265,3.342,3.343,3.34,100,0,0,0,204.5,29.47,29.47
"2022-08-24 00:54:00",3082778,0.864,315.1333,0.3403502,0.0174356,0.89,0,0.17,302.402,5.002876,0.02804759,0.23,0,-999,0,16.11,97.8,16.26,16.19,0.2,0,0,16.63,13.25,0.2,101.8251,3.342,3.342,3.34,100,0,0,0,204.5,29.47,29.47
"2022-08-24 00:55:00",3082779,0.8146668,311.9333,1.878419,0.01499629,0.85,0,0.1513333,288.1537,8.125942,0.03263264,0.21,0,-999,0,16.1,97.5,16.22,16.2,0.2,0,0,16.61,13.25,0.2,101.824,3.343,3.343,3.338,100,0,0,0,204.5,29.47,29.47
"2022-08-24 00:56:00",3082780,0.7819999,308.0667,0.4421298,0.006531991,0.79,0,0.1346667,264.3331,3.959498,0.02156128,0.17,0,-999,0,16.1,97.4,16.18,16.17,0.2,0,0,16.6,13.26,0.2,101.827,3.345,3.345,3.342,100,0,0,0,204.5,29.48,29.47
"2022-08-24 00:57:00",3082781,0.7593334,307.0667,0.2490541,0.006798685,0.77,0,0.1813333,255.3325,2.796356,0.02276449,0.22,0,-999,0,16.1,97.3,16.17,16.13,0.2,0,0,16.58,13.25,0.2,101.8288,3.342,3.345,3.342,100,0,0,0,204.5,29.47,29.47
"2022-08-24 00:58:00",3082782,0.7346667,305.8,0.6531312,0.01783878,0.76,0,0.228,241.6648,4.40612,0.01973153,0.26,0,-999,0,16.07,97.4,16.14,16.1,0.2,0,0,16.56,13.26,0.2,101.825,3.342,3.343,3.339,100,0,0,0,204.5,29.47,29.47
"2022-08-24 00:59:00",3082783,0.6533334,302.1338,2.061054,0.04011096,0.7,0,0.2886667,225.9344,5.322099,0.01668,0.31,0,-999,0,16.01,97.3,16.1,16.05,0.2,0,0,16.55,13.25,0.2,101.823,3.342,3.342,3.338,100,0,0,0,204.5,29.48,29.47
"2022-08-24 01:00:00",3082784,0.524,294.8,1.469528,0.01925271,0.56,0,0.3166667,199.1917,11.2578,0.01920648,0.36,0,-999,0,16,97.2,16.07,16.01,0.2,0,0,16.54,13.25,0.2,101.8267,3.344,3.344,3.339,100,0,0,0,204.5,29.47,29.47
"2022-08-24 01:01:00",3082785,0.5346667,295.6,0.8791815,0.02186829,0.57,0,0.36,178.3343,3.003114,0.0175119,0.39,0,-999,0,16,97.2,16.01,15.96,0.2,0,0,16.52,13.25,0.2,101.8237,3.342,3.346,3.342,100,0,0,0,204.5,29.47,29.47
"2022-08-24 01:02:00",3082786,0.5786666,300.2673,2.488832,0.03138295,0.62,0,0.382,187.3251,7.287323,0.02948446,0.43,0,-999,0,16,97.8,16.01,15.97,0.2,0,0,16.51,13.27,0.2,101.8207,3.344,3.346,3.343,100,0,0,0,204.5,29.47,29.47
"2022-08-24 01:03:00",3082787,0.67,304.2667,0.6802814,0.02633122,0.71,0,0.2913333,203.3051,10.76256,0.04047496,0.37,0,-999,0,16,98.4,16.05,15.98,0.2,0,0,16.49,13.25,0.2,101.822,3.34,3.342,3.34,100,0,0,0,204.5,29.47,29.47
"2022-08-24 01:04:00",3082788,0.7273333,306.4,0.489594,0.00928559,0.74,0,0.2133333,225.7442,11.54203,0.02674987,0.26,0,-999,0,16,98.8,16.1,16.02,0.2,0,0,16.47,13.25,0.2,101.8196,3.34,3.342,3.338,100,0,0,0,204.5,29.47,29.47
"2022-08-24 01:05:00",3082789,0.7566667,308.6667,0.8693321,0.007888097,0.77,0,0.1646667,247.9113,7.557077,0.01783878,0.2,0,-999,0,16.08,98.7,16.11,16.03,0.2,0,0,16.46,13.25,0.2,101.815,3.34,3.342,3.338,100,0,0,0,204.5,29.47,29.47
"2022-08-24 01:06:00",3082790,0.7699999,310.8,0.5424917,0.006324549,0.78,0,0.1693334,272.0103,7.568798,0.0281583,0.25,0,-999,0,16,98.1,16.11,16.05,0.2,0,0,16.46,13.26,0.2,101.8179,3.342,3.343,3.34,100,0,0,0,204.5,29.47,29.47
"2022-08-24 01:07:00",3082791,0.7926667,312.5333,0.7182024,0.0067987,0.8,0,0.1293333,275.9427,5.176345,0.01388845,0.15,0,-999,0,16,98.1,16.11,16.05,0.2,0,0,16.44,13.26,0.2,101.8199,3.343,3.343,3.342,100,0,0,0,204.5,29.47,29.47
"2022-08-24 01:08:00",3082792,0.7186666,316.4001,1.356483,0.03757067,0.79,0,0.08400001,228.8026,25.03864,0.01143096,0.11,0,-999,0,16,97.9,16.1,16.05,0.2,0,0,16.41,13.25,0.2,101.8177,3.343,3.344,3.342,100,0,0,0,204.5,29.46,29.47
"2022-08-24 01:09:00",3082793,0.6266667,319.3333,0.9423555,0.02054803,0.65,0,0.09800001,165.9829,9.485597,0.01045626,0.11,0,-999,0,16,97.6,16.06,16.03,0.2,0,0,16.39,13.24,0.2,101.8225,3.338,3.343,3.338,100,0,0,0,204.5,29.47,29.47
"2022-08-24 01:10:00",3082794,0.5106666,319.8667,1.087016,0.04373659,0.58,0,0.1526667,149.5305,4.513862,0.03065217,0.2,0,-999,0,15.95,97.9,16.02,16.01,0.2,0,0,16.37,13.26,0.2,101.8197,3.342,3.342,3.338,100,0,0,0,204.5,29.47,29.47
"2022-08-24 01:11:00",3082795,0.3686667,311.6667,3.645159,0.03499841,0.43,0,0.2466667,143.0667,0.8537723,0.02748737,0.3,0,-999,0,15.91,97.8,15.96,15.94,0.2,0,0,16.35,13.26,0.2,101.8137,3.34,3.343,3.338,100,0,0,0,204.5,29.46,29.47
"2022-08-24 01:12:00",3082796,0.262,300.6672,3.457193,0.0261279,0.31,0,0.3586667,143.6667,0.5961128,0.03052139,0.4,0,-999,0,15.9,97.6,15.91,15.88,0.2,0,0,16.34,13.26,0.2,101.8157,3.342,3.343,3.34,100,0,0,0,204.5,29.47,29.47
"2022-08-24 01:13:00",3082797,0.1606666,281.4833,8.369104,0.0308689,0.21,0,0.4346667,142.7333,0.7716617,0.01820867,0.46,0,-999,0,15.81,97.7,15.87,15.83,0.2,0,0,16.34,13.26,0.2,101.8223,3.342,3.342,3.34,100,0,0,0,204.5,29.47,29.47
"2022-08-24 01:14:00",3082798,0.1033333,246.3127,7.384492,0.007888105,0.11,0,0.4806666,146.0668,1.730632,0.01181336,0.5,0,-999,0,15.8,98.2,15.95,15.87,0.2,0,0,16.32,13.23,0.2,101.8195,3.34,3.343,3.339,100,0,0,0,204.5,29.47,29.47
"2022-08-24 01:15:00",3082799,0.09266667,213.0185,14.75726,0.01339983,0.12,0,0.5553333,143.1328,2.418323,0.05057887,0.62,0,-999,0,15.8,97.9,15.9,15.84,0.2,0,0,16.32,13.26,0.2,101.8238,3.343,3.344,3.338,100,0,0,0,204.5,29.46,29.47
"2022-08-24 01:16:00",3082800,0.1806667,169.3851,7.986608,0.02669998,0.22,0,0.6119999,140.7333,0.6795618,0.01641138,0.65,0,-999,0,15.77,97.8,15.85,15.77,0.2,0,0,16.3,13.26,0.2,101.8187,3.342,3.344,3.339,100,0,0,0,204.5,29.47,29.47
"2022-08-24 01:17:00",3082801,0.2453333,153.8662,2.124735,0.01146977,0.26,0,0.7246667,138.8,0.6534308,0.0653061,0.82,0,-999,0,15.7,97.9,15.82,15.74,0.2,0,0,16.29,13.24,0.2,101.8205,3.338,3.342,3.337,100,0,0,0,204.5,29.47,29.47
"2022-08-24 01:18:00",3082802,0.262,155.2,0.747574,0.008326669,0.27,0,0.7733334,141.5334,1.309791,0.02674987,0.82,0,-999,0,15.7,98.3,15.83,15.75,0.2,0,0,16.29,13.24,0.2,101.8236,3.342,3.342,3.337,100,0,0,0,204.5,29.47,29.47
"2022-08-24 01:19:00",3082803,0.226,159.1337,2.18661,0.02184795,0.27,0,0.7333333,141.9333,0.5733563,0.02547329,0.79,0,-999,0,15.7,98.2,15.81,15.73,0.2,0,0,16.29,13.25,0.2,101.8196,3.342,3.344,3.339,100,0,0,0,204.5,29.47,29.47
"2022-08-24 01:20:00",3082804,0.1633333,165.5345,2.962694,0.01445299,0.19,0,0.7073333,141.0001,0.9659434,0.0304339,0.76,0,-999,0,15.7,97.9,15.78,15.68,0.2,0,0,16.27,13.26,0.2,101.8218,3.342,3.342,3.342,100,0,0,0,204.5,29.47,29.47
"2022-08-24 01:21:00",3082805,0.126,186.8245,7.212819,0.0061101,0.13,0,0.646,139.4,1.356555,0.03808762,0.71,0,-999,0,15.7,98.2,15.81,15.73,0.2,0,0,16.27,13.25,0.2,101.8197,3.343,3.343,3.339,100,0,0,0,204.5,29.47,29.47
"2022-08-24 01:22:00",3082806,0.1313333,200.1281,4.895001,0.009568468,0.14,0,0.5473334,140.7333,0.5731856,0.03802923,0.6,0,-999,0,15.7,98.5,15.85,15.75,0.2,0,0,16.27,13.25,0.2,101.8196,3.343,3.343,3.338,100,0,0,0,204.5,29.47,29.47
"2022-08-24 01:23:00",3082807,0.102,228.5992,11.04088,0.006531972,0.11,0,0.436,138.1335,1.746119,0.05096404,0.52,0,-999,0,15.7,98.6,15.87,15.77,0.2,0,0,16.25,13.26,0.2,101.823,3.342,3.344,3.342,100,0,0,0,204.5,29.47,29.47
"2022-08-24 01:24:00",3082808,0.08533335,258.696,10.66459,0.009568467,0.1,0,0.3226667,137.8673,2.57831,0.02885982,0.38,0,-999,0,15.73,98.8,15.91,15.83,0.2,0,0,16.24,13.25,0.2,101.8253,3.342,3.343,3.34,100,0,0,0,204.5,29.47,29.47
"2022-08-24 01:25:00",3082809,0.07666668,311.3518,13.41266,0.01699673,0.11,0,0.2646666,115.1833,6.818356,0.02156129,0.3,0,-999,0,15.8,98.9,15.97,15.89,0.2,0,0,16.24,13.25,0.2,101.8254,3.342,3.342,3.339,100,0,0,0,204.5,29.47,29.47
"2022-08-24 01:26:00",3082810,0.1353333,334.8002,3.102312,0.01203698,0.15,0,0.3213333,109.8669,2.276407,0.01746107,0.35,0,-999,0,15.87,99.1,16.03,15.91,0.2,0,0,16.24,13.25,0.2,101.824,3.339,3.342,3.338,100,0,0,0,204.5,29.47,29.47
"2022-08-24 01:27:00",3082811,0.1693333,342.7319,3.453304,0.007717228,0.18,0,0.3113333,100.7329,3.129591,0.01783878,0.35,0,-999,0,15.9,99.2,16.08,15.94,0.2,0,0,16.24,13.25,0.2,101.8255,3.339,3.34,3.337,100,0,0,0,204.5,29.47,29.47
"2022-08-24 01:28:00",3082812,0.21,358.5993,4.571629,0.0233809,0.24,0,0.3466667,91.80129,3.815343,0.01920648,0.37,0,-999,0,15.9,99.2,16.13,15.99,0.2,0,0,16.22,13.24,0.2,101.822,3.34,3.342,3.337,100,0,0,0,204.5,29.47,29.47
"2022-08-24 01:29:00",3082813,0.236,11.93372,1.947918,0.007999999,0.25,0,0.3273333,88.86633,1.995296,0.02885982,0.38,0,-999,0,15.89,98.4,16.05,15.95,0.2,0,0,16.22,13.24,0.2,101.8246,3.342,3.342,3.337,100,0,0,0,204.5,29.47,29.47
"2022-08-24 01:30:00",3082814,0.204,15.4,0.6102254,0.01143095,0.22,0,0.3573333,91.73338,2.619291,0.01236482,0.38,0,-999,0,15.81,98.2,15.98,15.87,0.2,0,0,16.21,13.24,0.2,101.828,3.342,3.342,3.337,100,0,0,0,204.5,29.47,29.47
"2022-08-24 01:31:00",3082815,0.1633333,10.13897,5.677366,0.005962849,0.17,0,0.3193333,89.73306,3.315565,0.02862788,0.37,0,-999,0,15.79,98.5,15.97,15.83,0.2,0,0,16.19,13.25,0.2,101.8228,3.342,3.342,3.339,100,0,0,0,204.5,29.46,29.47
"2022-08-24 01:32:00",3082816,0.1586667,335.7522,13.39606,0.01024153,0.17,0,0.1726667,74.86531,9.180999,0.04493947,0.27,0,-999,0,15.71,98.4,15.93,15.83,0.2,0,0,16.19,13.25,0.2,101.821,3.34,3.342,3.339,100,0,0,0,204.5,29.46,29.47
"2022-08-24 01:33:00",3082817,0.2913333,309.3993,3.684065,0.0629144,0.4,0,0.09733333,7.900592,48.73539,0.02293953,0.14,0,-999,0,15.7,98.2,15.9,15.81,0.2,0,0,16.18,13.26,0.2,101.8272,3.34,3.342,3.339,100,0,0,0,204.5,29.47,29.47
"2022-08-24 01:34:00",3082818,0.4933333,300.7331,2.047994,0.04511714,0.56,0,0.24,303.394,7.596979,0.04033196,0.31,0,-999,0,15.7,98.2,15.83,15.74,0.2,0,0,16.17,13.25,0.2,101.8228,3.34,3.342,3.34,100,0,0,0,204.5,29.47,29.47
"2022-08-24 01:35:00",3082819,0.6233333,297.2667,0.8535431,0.03299832,0.68,0,0.3833333,302.6677,2.624112,0.02699794,0.42,0,-999,0,15.59,97.3,15.68,15.63,0.2,0,0,16.14,13.26,0.2,101.8229,3.34,3.343,3.339,100,0,0,0,204.5,29.47,29.47
"2022-08-24 01:36:00",3082820,0.7266666,298.2667,0.6802814,0.01445299,0.75,0,0.454,301.8,1.680874,0.012,0.47,0,-999,0,15.39,96.5,15.45,15.37,0.2,0,0,16.14,13.25,0.2,101.8238,3.338,3.342,3.337,100,0,0,0,204.5,29.47,29.47
"2022-08-24 01:37:00",3082821,0.6873333,297.7999,1.514402,0.02322833,0.73,0,0.458,302.5999,1.854711,0.0132665,0.48,0,-999,0,15.3,97.1,15.32,15.3,0.2,0,0,16.14,13.27,0.2,101.8238,3.34,3.342,3.339,100,0,0,0,204.5,29.47,29.47
"2022-08-24 01:38:00",3082822,0.6873333,297.0667,0.6798497,0.006798685,0.7,0,0.398,308.8001,1.640972,0.02103964,0.43,0,-999,0,15.3,98.1,15.35,15.3,0.2,0,0,16.12,13.24,0.2,101.8202,3.338,3.34,3.337,100,0,0,0,204.5,29.47,29.47
"2022-08-24 01:39:00",3082823,0.65,299.6667,0.8692195,0.02160247,0.68,0,0.342,311.4663,1.627555,0.016,0.38,0,-999,0,15.3,99.5,15.4,15.37,0.2,0,0,16.11,13.26,0.2,101.8268,3.34,3.342,3.339,100,0,0,0,204.5,29.47,29.47
"2022-08-24 01:40:00",3082824,0.6073333,301.3333,0.5961128,0.005734878,0.62,0,0.346,323.6011,3.281524,0.03006659,0.39,0,-999,0,15.3,99.8,15.46,15.44,0.2,0,0,16.09,13.24,0.2,101.825,3.337,3.342,3.337,100,0,0,0,204.5,29.46,29.47
"2022-08-24 01:41:00",3082825,0.5826666,303.2667,0.7715349,0.01526071,0.61,0,0.2186667,327.7332,1.913432,0.04145144,0.28,0,-999,0,15.36,99.5,15.49,15.45,0.2,0,0,16.08,13.25,0.2,101.8189,3.339,3.34,3.337,100,0,0,0,204.5,29.46,29.47
"2022-08-24 01:42:00",3082826,0.5033333,302.4666,0.7173846,0.03339993,0.55,0,0.1613333,333.7342,5.334629,0.01667999,0.19,0,-999,0,15.32,98.7,15.45,15.4,0.2,0,0,16.07,13.26,0.2,101.8165,3.338,3.343,3.338,100,0,0,0,204.5,29.46,29.47
"2022-08-24 01:43:00",3082827,0.418,300.6,0.7996832,0.02072036,0.45,0,0.1073333,341.735,3.375107,0.01339983,0.13,0,-999,0,15.3,98.6,15.44,15.39,0.2,0,0,16.05,13.27,0.2,101.816,3.342,3.342,3.338,100,0,0,0,204.5,29.46,29.47
"2022-08-24 01:44:00",3082828,0.376,298.5333,1.30994,0.007118045,0.39,0,0.08800001,340.2001,2.006649,0.005416027,0.1,0,-999,0,15.3,98.6,15.44,15.33,0.2,0,0,16.04,13.26,0.2,101.8234,3.342,3.342,3.338,100,0,0,0,204.5,29.46,29.47
"2022-08-24 01:45:00",3082829,0.4113334,300.3333,0.4718878,0.01746107,0.44,0,0.1286667,335.0664,3.150791,0.01707499,0.16,0,-999,0,15.29,98.2,15.43,15.32,0.2,0,0,16.04,13.26,0.2,101.8219,3.342,3.343,3.342,100,0,0,0,204.5,29.47,29.47